Other Surface Observations
Issued by NWS Jacksonville, FL

Home | Current Version | Previous Version | Text Only | Print | Product List | Glossary On
Versions: 1 2 3 4 5 6 7 8 9 10 11 12 13 14 15 16 17 18 19 20 21 22 23 24 25 26 27 28 29 30 31 32 33 34 35 36 37 38 39 40 41 42 43 44 45 46 47 48 49 50
000
SXUS52 KJAX 290910
OSOJAX
OTHER SURFACE OBSERVATIONS
NATIONAL WEATHER SERVICE JACKSONVILLE FL
500 AM EDT TUE JUL 29 2014

FLZ020>025-030>033-035>038-040-291000-
...FLORIDA...

CITY           SKY/WX    TMP DP  RH WIND       PRES   REMARKS
CECIL FIELD    CLEAR     77  77 100 W5        29.90S
HERLONG FIELD  NOT AVBL
FERNANDINA BCH NOT AVBL
LAKE CITY      LGT RAIN  75  72  88 MISG      29.92R
JUNIPER SPGS   NOT AVBL
BUNNELL        FAIR      78  76  93 W5        29.91R
KEYSTONE HGTS  FAIR      79  79 100 W6        29.91F
$$

GAZ132>136-149>154-162>166-291000-
...GEORGIA...

CITY           SKY/WX    TMP DP  RH WIND       PRES   REMARKS
JESUP          PTSUNNY   77  72  83 W3        29.90R
HOMERVILLE     FAIR      73  72  94 NW3       29.92S
SWAINSBORO     PTSUNNY   70  70 100 NW3       29.92R
CORDELE        NOT AVBL
$$

PLEASE NOTE:  THESE OBSERVATIONS ARE NOT QUALITY CONTROLLED AND MAY
NOT BE AVAILABLE AT ALL TIMES.
$$


USA.gov is the U.S. government's official web portal to all federal, state and local government web resources and services.